[[{"header":{"parameterUnit":"m.s-1","parameterCategory":1,"la1":30.2991,"la2":30.254,"lo1":-89.0895,"lo2":-89.0444,"dy":0.0017,"dx":0.0017,"nx":28,"ny":28,"refTime":"2026-02-09T03:00:00:Z","depth":0,"parameterNumber":2,"parameterNumberName":"U-component_of_WINDS"},"data":[0,0,0,0,0,0,0,0,0,0,0,0,0,0,0,0,0,0,0,0,0,0,0,0,0,0,0,0,0,0,0,0,0,0,0,0,0,0,0,0,0,0,0,0,0,0,0,0,0,0,0,0,0,0,0,0,0,0,0.3172,0.3173,0,0.3208,0.3209,0.3209,0.3193,0.3192,0.3191,0.319,0.3231,0.3232,0.3234,0,0,0,0,0,0,0,0,0,0,0,0,0,0.3093,0.3094,0.3172,0.3173,0.3173,0.3208,0.3209,0.3209,0.3193,0.3192,0.3191,0.319,0.323,0.3232,0.3234,0,0,0,0,0,0,0,0,0,0,0,0,0,0.3128,0.3095,0.3172,0.3169,0.3169,0.3208,0.3209,0.3209,0.3193,0.3192,0.3191,0.3189,0.3229,0.3232,0.3235,0.3279,0,0,0.3243,0.3245,0,0,0,0,0,0,0,0,0.3126,0.3131,0.3169,0.317,0.317,0.3195,0.3195,0.3233,0.3194,0.3184,0.319,0.3189,0.322,0.3223,0.3233,0.3281,0.3283,0.3244,0.3245,0.3247,0.3247,0,0,0,0,0,0,0,0.3124,0.3129,0.3187,0.317,0.317,0.3167,0.3171,0.3202,0.3209,0.3185,0.3184,0.3188,0.322,0.323,0.3234,0.3283,0.3244,0.3246,0.3248,0.3249,0.337,0.3371,0,0,0,0,0,0,0.3121,0.3127,0.3185,0.3188,0.3144,0.317,0.3174,0.3188,0.3209,0.3211,0.3189,0.3187,0.3226,0.3231,0.3235,0.3289,0.3247,0.3249,0.3251,0.3368,0.337,0.3372,0,0,0,0,0,0,0.3119,0.3126,0.3184,0.3157,0.3164,0.3172,0.3189,0.3189,0.32,0.3212,0.3214,0.3199,0.3225,0.3231,0.3268,0.329,0.3251,0.3253,0.3367,0.3369,0.3371,0.3397,0,0,0,0,0,0,0.3117,0.3126,0.3142,0.3158,0.3166,0.3216,0.319,0.3191,0.3205,0.3202,0.3221,0.3223,0.3225,0.3264,0.3271,0.3294,0.3255,0.3365,0.3368,0.337,0.3394,0.34,0.3404,0,0,0,0,0,0.3114,0.3149,0.3143,0.315,0.3186,0.3217,0.3222,0.3222,0.3206,0.3224,0.3231,0.3223,0.3286,0.3268,0.3276,0.3299,0.3363,0.3367,0.337,0.3392,0.3399,0.3404,0,0,0,0,0,0,0.3137,0.3151,0.3145,0.3185,0.32,0.3214,0.3236,0.3229,0.3249,0.3246,0.3246,0.3251,0.3289,0.3298,0.3277,0.3344,0.3323,0.3328,0.3337,0.3343,0.3348,0.3346,0.3258,0,0,0,0,0,0.3146,0.3169,0.318,0.3215,0.3222,0.3228,0.3241,0.3239,0.3255,0.3262,0.3272,0.3289,0.3312,0.3328,0.335,0.3395,0.3399,0.3415,0.342,0.3424,0.3429,0.3453,0.3461,0.3383,0.3383,0.3383,0,0,0.3167,0.3177,0.3192,0.322,0.3231,0.3255,0.3233,0.326,0.3278,0.3266,0.3301,0.3309,0.3328,0.3369,0.3387,0.3377,0.3451,0.3429,0.3432,0.3434,0.3458,0.3465,0.3472,0.3385,0.3385,0.3384,0,0,0.3216,0.3226,0.3256,0.3267,0.3284,0.3287,0.3294,0.3309,0.3314,0.3349,0.334,0.3362,0.3403,0.3417,0.3429,0.3482,0.3476,0.349,0.3518,0.3541,0.3547,0.3553,0.3573,0.358,0.3494,0.3494,0.3494,0,0.324,0.3275,0.3273,0.33,0.3313,0.3301,0.3332,0.3343,0.3367,0.3377,0.3365,0.3415,0.3427,0.3471,0.3484,0.3494,0.3502,0.3488,0.3546,0.3552,0.3557,0.3576,0.3583,0.3496,0.3496,0.3496,0.3495,0,0.3304,0.3328,0.335,0.3372,0.3387,0.3416,0.3419,0.3435,0.3432,0.3436,0.3472,0.3485,0.351,0.352,0.3518,0.3564,0.3557,0.3546,0.3525,0.3566,0.3584,0.3591,0.3498,0.3498,0.3497,0.3497,0,0,0.337,0.3389,0.3397,0.3407,0.3424,0.3443,0.3472,0.3495,0.3509,0.3525,0.355,0.3584,0.3573,0.3587,0.3586,0.3607,0.3649,0.3593,0.3593,0.3604,0.3701,0.371,0.3719,0.3644,0.3645,0.3646,0.37,0,0.3421,0.347,0.3468,0.3514,0.3537,0.3526,0.3551,0.3564,0.3569,0.359,0.3596,0.362,0.3604,0.3612,0.3632,0.364,0.3669,0.3636,0.3668,0.3669,0.3665,0.3728,0.3738,0.3787,0.3707,0.3708,0.3709,0,0.3488,0.3505,0.3553,0.3567,0.3576,0.3598,0.3619,0.3639,0.3654,0.3657,0.3671,0.3667,0.3697,0.3674,0.3715,0.3693,0.3706,0.3711,0.3713,0.3717,0.3692,0.3735,0.3803,0.3811,0.372,0.3719,0.3718,0,0.3533,0.3568,0.3601,0.361,0.3626,0.3642,0.3649,0.3663,0.3677,0.3696,0.3705,0.3727,0.3739,0.3757,0.3759,0.3742,0.3801,0.3778,0.3804,0.3804,0.3818,0.3818,0.3891,0.3825,0.3825,0.3825,0.3825,0,0.3591,0.3621,0.3621,0.3642,0.3675,0.3673,0.3706,0.3712,0.3724,0.3747,0.3739,0.376,0.3761,0.3783,0.3784,0.3819,0.3824,0.3828,0.3828,0.3829,0.3829,0.3838,0.3835,0.3827,0.3826,0.3826,0.3826,0,0.3647,0.3648,0.3683,0.3695,0.3699,0.3723,0.3734,0.3754,0.3757,0.3785,0.3792,0.3798,0.3823,0.3826,0.3857,0.3858,0.3899,0.3896,0.3894,0.3894,0.392,0.3918,0.4003,0.4015,0.394,0.3941,0.3941,0,0.3684,0.3707,0.372,0.3734,0.3742,0.3765,0.3778,0.3777,0.3791,0.381,0.3828,0.3852,0.3872,0.3913,0.3921,0.3944,0.3941,0.3969,0.3945,0.3945,0.3943,0.3942,0.3944,0.3975,0.3976,0.3976,0.3977,0,0.3751,0.375,0.377,0.3789,0.3805,0.3821,0.3836,0.3848,0.3848,0.3865,0.389,0.3905,0.3935,0.396,0.3982,0.3991,0.3985,0.3984,0.3992,0.3993,0.3992,0.3994,0.3908,0.3983,0.3982,0.3982,0.3981,0.3981,0.3799,0.3819,0.3831,0.3853,0.3864,0.3878,0.3897,0.3902,0.3923,0.3946,0.3944,0.3972,0.3987,0.4016,0.4026,0.4049,0.404,0.405,0.4053,0.4056,0.4059,0.3987,0.4053,0.4053,0.4053,0.4052,0.4052,0,0.3866,0.3873,0.3893,0.3914,0.3931,0.3921,0.3937,0.3952,0.3977,0.399,0.4009,0.4038,0.4062,0.4071,0.4094,0.411,0.4108,0.4117,0.4116,0.4118,0.4065,0.4057,0.4118,0.4118,0.4118,0.4118,0.4118,0.4118,0.3903,0.3936,0.3936,0.3974,0.3981,0.4008,0.4018,0.403,0.4041,0.4074,0.4093,0.4098,0.411,0.4134,0.4155,0.4157,0.4167,0.4177,0.4178,0.4129,0.4122,0.4116,0.4108,0.4179,0.4179,0.4229,0.423,0.423]},{"header":{"parameterUnit":"m.s-1","parameterCategory":1,"la1":30.2991,"la2":30.254,"lo1":-89.0895,"lo2":-89.0444,"dy":0.0017,"dx":0.0017,"nx":28,"ny":28,"refTime":"2026-02-09T03:00:00:Z","depth":0,"parameterNumber":3,"parameterNumberName":"V-component_of_WINDS"},"data":[0,0,0,0,0,0,0,0,0,0,0,0,0,0,0,0,0,0,0,0,0,0,0,0,0,0,0,0,0,0,0,0,0,0,0,0,0,0,0,0,0,0,0,0,0,0,0,0,0,0,0,0,0,0,0,0,0,0,2.249,2.2491,0,2.2593,2.2594,2.2595,2.2626,2.2625,2.2625,2.2624,2.2729,2.2732,2.2735,0,0,0,0,0,0,0,0,0,0,0,0,0,2.2322,2.2324,2.249,2.2491,2.2493,2.2593,2.2594,2.2595,2.2626,2.2625,2.2625,2.2624,2.2728,2.2732,2.2736,0,0,0,0,0,0,0,0,0,0,0,0,0,2.2406,2.2325,2.249,2.252,2.2524,2.2592,2.2594,2.2596,2.2626,2.2625,2.2625,2.2624,2.2726,2.2731,2.2736,2.2782,0,0,2.2751,2.2753,0,0,0,0,0,0,0,0,2.2402,2.2413,2.2514,2.2518,2.2522,2.2596,2.2573,2.2658,2.2626,2.2587,2.2624,2.2623,2.2685,2.2693,2.2714,2.2787,2.2791,2.2751,2.2754,2.2757,2.2758,0,0,0,0,0,0,0,2.2396,2.2408,2.2531,2.2516,2.2521,2.2529,2.254,2.2589,2.2639,2.2591,2.2593,2.2605,2.2687,2.271,2.2717,2.2793,2.2751,2.2756,2.2759,2.2761,2.291,2.2911,0,0,0,0,0,0,2.2385,2.2403,2.2527,2.2534,2.2459,2.2532,2.2545,2.2573,2.2639,2.2648,2.2605,2.2606,2.2702,2.2711,2.2721,2.2781,2.2757,2.2761,2.2764,2.2909,2.2911,2.2912,0,0,0,0,0,0,2.2381,2.2395,2.2523,2.2469,2.2486,2.2536,2.2567,2.2575,2.2598,2.265,2.2659,2.2619,2.2701,2.2714,2.2767,2.2785,2.2763,2.2768,2.2908,2.291,2.2911,2.2899,0,0,0,0,0,0,2.2376,2.2394,2.2412,2.2469,2.2489,2.2568,2.2568,2.2578,2.2606,2.2608,2.2665,2.2674,2.2702,2.276,2.2772,2.2791,2.2772,2.2907,2.2909,2.2911,2.2898,2.29,2.2902,0,0,0,0,0,2.237,2.2403,2.2412,2.2427,2.2512,2.2568,2.258,2.2611,2.2607,2.2626,2.266,2.2672,2.278,2.2765,2.2779,2.28,2.2906,2.2908,2.2911,2.2897,2.29,2.2902,0,0,0,0,0,0,2.2346,2.2412,2.2422,2.2475,2.2516,2.2574,2.2598,2.2612,2.2655,2.2654,2.2691,2.2704,2.2755,2.2782,2.2764,2.2849,2.2844,2.2849,2.2829,2.2831,2.2833,2.2826,2.2776,0,0,0,0,0,2.2347,2.2387,2.2442,2.2484,2.2504,2.2547,2.2573,2.2594,2.2638,2.2655,2.2693,2.2734,2.2778,2.2806,2.2849,2.2902,2.2916,2.2924,2.2925,2.2926,2.2931,2.2963,2.2968,2.292,2.2919,2.2919,0,0,2.2349,2.239,2.2413,2.248,2.2514,2.2556,2.2562,2.2605,2.2636,2.2661,2.2715,2.2744,2.2793,2.2847,2.2872,2.2871,2.2947,2.2929,2.293,2.2934,2.2966,2.297,2.2974,2.2921,2.2921,2.2921,0,0,2.2375,2.2409,2.2449,2.2483,2.2535,2.2564,2.2573,2.2629,2.2649,2.2703,2.2724,2.2761,2.2835,2.2871,2.2898,2.2939,2.2952,2.2951,2.2961,2.2992,2.2996,2.2999,2.3015,2.302,2.2955,2.2955,2.2955,0,2.2371,2.2434,2.2467,2.251,2.254,2.2565,2.2606,2.2637,2.27,2.2721,2.2718,2.2813,2.2848,2.2912,2.2922,2.2942,2.2955,2.2945,2.2992,2.2996,2.3,2.3016,2.3022,2.2955,2.2955,2.2955,2.2955,0,2.2428,2.2472,2.2497,2.2559,2.2591,2.2632,2.2672,2.2701,2.2719,2.2749,2.2804,2.2847,2.29,2.2916,2.2934,2.2983,2.2981,2.2985,2.2981,2.3004,2.3019,2.3026,2.2955,2.2955,2.2955,2.2955,0,0,2.2441,2.2521,2.253,2.2559,2.2619,2.2653,2.2696,2.2749,2.2774,2.2816,2.2854,2.2917,2.2922,2.2953,2.2975,2.3002,2.3034,2.3003,2.3005,2.3009,2.3092,2.309,2.3096,2.3043,2.3044,2.3045,2.3089,0,2.2476,2.2554,2.2586,2.2649,2.2691,2.2716,2.2754,2.2795,2.2824,2.2864,2.2895,2.294,2.2942,2.2962,2.2989,2.3024,2.3051,2.3021,2.308,2.3081,2.3068,2.3104,2.3101,2.3141,2.3095,2.3096,2.3097,0,2.2526,2.2571,2.2639,2.2695,2.2714,2.2747,2.2799,2.2836,2.2884,2.2903,2.2938,2.2959,2.3006,2.2999,2.3065,2.3044,2.307,2.3091,2.3093,2.3101,2.3091,2.3114,2.3154,2.316,2.3106,2.3106,2.3105,0,2.2531,2.2608,2.2659,2.2683,2.2749,2.2772,2.2801,2.2848,2.2878,2.2923,2.2943,2.2992,2.302,2.3058,2.3092,2.3083,2.3156,2.3151,2.3175,2.3174,2.319,2.3188,2.3235,2.3204,2.3204,2.3203,2.3203,0,2.2567,2.2608,2.2662,2.2694,2.2741,2.2777,2.2823,2.2854,2.2895,2.2934,2.2958,2.2994,2.3036,2.3078,2.3105,2.3157,2.3168,2.3186,2.3193,2.3185,2.3183,2.3203,2.3202,2.3205,2.3205,2.3204,2.3204,0,2.2581,2.2618,2.2676,2.2735,2.2751,2.2783,2.2834,2.2866,2.2896,2.2945,2.2958,2.3005,2.3056,2.3093,2.3158,2.3176,2.3232,2.3239,2.3216,2.322,2.3242,2.324,2.3305,2.3316,2.3275,2.3276,2.3276,0,2.2602,2.2635,2.2697,2.2725,2.2754,2.2798,2.2829,2.2866,2.2897,2.2955,2.2981,2.3032,2.3076,2.3156,2.3196,2.3246,2.3255,2.3274,2.3263,2.3254,2.3258,2.3256,2.326,2.3276,2.3276,2.3277,2.3277,0,2.2636,2.2654,2.2698,2.2749,2.2785,2.2827,2.2869,2.2891,2.2936,2.297,2.3022,2.3056,2.3123,2.3175,2.3229,2.326,2.3276,2.328,2.3288,2.3281,2.3268,2.3277,2.3222,2.3279,2.3278,2.3278,2.3278,2.3278,2.2656,2.2686,2.2736,2.2784,2.282,2.286,2.2893,2.2928,2.2972,2.303,2.3049,2.3103,2.3151,2.3227,2.3257,2.3301,2.3301,2.3313,2.3316,2.3319,2.3319,2.3259,2.3311,2.3311,2.3311,2.3311,2.3311,0,2.2692,2.2726,2.277,2.2829,2.2868,2.288,2.2928,2.296,2.3007,2.3051,2.3093,2.3154,2.3205,2.325,2.3303,2.333,2.3339,2.3342,2.3342,2.3349,2.3315,2.3303,2.3334,2.3334,2.3334,2.3334,2.3334,2.3334,2.2716,2.277,2.2793,2.2865,2.2898,2.2952,2.2978,2.3015,2.305,2.3117,2.316,2.3189,2.3234,2.329,2.3338,2.335,2.3369,2.3372,2.3386,2.3354,2.3351,2.3348,2.3337,2.3375,2.3375,2.3416,2.3416,2.3417]}]]